STARLINK-5229 (54171 NORAD) Tracking and Keplerian Element Data

This shows tracking and keplerian element data for the satellite.

Feedback or suggestion? Click here.




ElementValue
Catalog54171
NameSTARLINK-5229
Epoch Orbit378
Epoch Day324.91667824
Epoch Year2022
RAAN25.7748
Inclination53.2191
Eccentricity0.0002935
Argument of Perigee10.1886
Mean Anonmoly276.3721
Mean Motion15.73170801
Decay Rate0.00038151
L11 54171U 22141Q 22324.91667824 .00038151 00000+0 27532-3 0 9993
L22 54171 53.2191 25.7748 0002935 10.1886 276.3721 15.73170801 3786



Live tracking and technical data element details for STARLINK-5229 (NORAD 54171). STARLINK-5229 can be tracked NOW for your location showing map with azimuth and elevation plus other details from your city location.







IsCatalogInMostPopularTable: catalog: 54171, numindb: 7
Update: records affected: 1



GetName: 54171 STARLINK-5229

Hit Count: updated at: Sun, 04 Dec 2022 23:01:08 GMT